Other Public Products
Issued by NWS Grand Forks, ND

Home | Current Version | Previous Version | Graphics & Text | Print | Product List | Glossary On
Versions: 1 2 3 4 5 6 7 8 9 10 11 12 13 14 15 16 17 18 19 20 21 22 23 24 25 26 27 28 29 30 31 32 33 34 35 36 37 38 39 40 41 42 43 44 45 46 47 48 49 50
000
FPUS83 KFGF 240810
OPUFGF
PRAIRIE TO PINES WEATHER ROUNDUP
NATIONAL WEATHER SERVICE EASTERN NORTH DAKOTA/GRAND FORKS ND
200 AM CST FRI NOV 24 2017

 **SATELLITE DATA USED TO AUGMENT SKY COVER AT AUTOMATED STATIONS**
 *****  WEATHER ACROSS EASTERN NORTH DAKOTA  *****

CITY           SKY/WX    TMP DP  RH WIND       PRES   REMARKS
GRAND FORKS    FAIR      41  36  82 SW7       29.23F
GRND FORKS AFB FAIR      46  36  68 W14       29.23F
GRND FORKS NWS   N/A     39 N/A N/A S7          N/A
BUXTON         NOT AVBL
DEVILS LAKE    FAIR      43  36  76 W15       29.27F
FARGO          FAIR      50  38  63 SW13      29.31F
WAHPETON ARPT  NOT AVBL
$$

 *****  WEATHER ACROSS CENTRAL AND WESTERN NORTH DAKOTA  *****

CITY           SKY/WX    TMP DP  RH WIND       PRES   REMARKS
JAMESTOWN      FAIR      51  37  58 W10       29.32F
BISMARCK       FAIR      55  37  50 W8        29.38S
MINOT          MOCLDY    55  38  52 W21G29    29.31R
MINOT AFB      LGT RAIN  47  41  80 W13       29.30R
GARRISON         N/A     42  36  79 W10       29.34R
WILLISTON      FAIR      46  40  79 NW6       29.38S
DICKINSON      FAIR      54  34  46 SW17      29.37F
HETTINGER      FAIR      44  31  60 W5        29.47F
$$

 *****  OTHER OBSERVATIONS NORTHEAST NORTH DAKOTA  *****

CITY           SKY/WX    TMP DP  RH WIND       PRES   REMARKS
WALHALLA       FAIR      48  41  76 W15G22    29.21S
LANGDON        FAIR      37  37 100 W7        29.24R
CAVALIER       FAIR      41  36  81 NW9       29.21S
GRAFTON        FAIR      41  36  81 NW7       29.25R
CANDO          FAIR      43  37  81 W13       29.27S
FORT TOTTEN      N/A     49  37  61 W7        29.95S
ROLLA          FAIR      46  39  76 W17       29.24S
RUGBY          FAIR      41  36  81 SW13      29.27S
 ***** THE ABOVE OBSERVATIONS ARE NON NWS ARE NOT QUALITY
        CONTROLLED AND MAY MIS-REPORT RAIN FOR SNOW...
$$

 *****  OTHER OBSERVATIONS SOUTHEAST NORTH DAKOTA *****

CITY           SKY/WX    TMP DP  RH WIND       PRES   REMARKS
COOPERSTOWN    FAIR      46  37  71 SW12      29.31F
VALLEY CITY    PTSUNNY   50  37  62 W15       29.34S
OAKES            N/A     37  36  93 S12       29.38S
GWINNER          N/A     41  36  81 SW14      29.36F
BUFFALO        NOT AVBL
WYNDMERE       NOT AVBL
 ***** THE ABOVE OBSERVATIONS ARE NON NWS ARE NOT QUALITY
       CONTROLLED AND MAY MIS-REPORT RAIN FOR SNOW...
$$

  *****  WEATHER ACROSS NORTHERN MINNESOTA  *****

CITY           SKY/WX    TMP DP  RH WIND       PRES   REMARKS
FLAG ISLAND    FAIR      43  36  75 W15       29.14R
WARROAD        FAIR      45  39  81 SW10      29.19S
ROSEAU         FAIR      45  37  76 SW12      29.19S
HALLOCK        FAIR      36  34  93 S6        29.22R
THF RVR FALLS  MOCLDY    42  36  79 SW12      29.27S
HALSTAD        NOT AVBL
FOSSTON        FAIR      37  34  87 S10       29.30F
BAUDETTE       FAIR      45  36  70 SW10      29.18F
WASKISH        FAIR      48  37  66 SW12G18   29.23F
CROOKSTON      FAIR      41  36  81 S9        29.27F
$$
  *****  WEATHER ACROSS CENTRAL AND WEST MINNESOTA  *****

CITY           SKY/WX    TMP DP  RH WIND       PRES   REMARKS
BEMIDJI        FAIR      41  35  79 SW7       29.29F
PARK RAPIDS    FAIR      38  33  82 SW6       29.33F
WADENA         FAIR      46  37  71 SW8       29.36F
DETROIT LAKES  FAIR      45  37  76 S7        29.34F
MOORHEAD       FAIR      37  34  87 CALM      29.33F
FERGUS FALLS   FAIR      37  34  87 S7        29.39F
ELBOW LAKE     FAIR      37  33  87 S9        29.39F
MORRIS MN      FAIR      43  36  75 S5        29.40F
STAPLES        FAIR      45  36  70 SW8       29.37F
WHEATON        NOT AVBL
$$
  *****  WEATHER ELSEWHERE ACROSS MINNESOTA  *****

CITY           SKY/WX    TMP DP  RH WIND       PRES   REMARKS
DULUTH         FAIR      39  32  76 SW17G28   29.36F
INTRNTL FALLS  FAIR      42  33  70 SW9       29.20F
ELY            FAIR      37  30  75 SW10G16   29.30F
CLOQUET        FAIR      39  28  65 SW14G21   29.38F
BRAINERD       FAIR      40  33  76 S9        29.39F
HIBBING        FAIR      34  29  82 S5        29.33F
ALEXANDRIA     FAIR      45  37  73 SW8       29.41F
SAINT CLOUD    FAIR      37  32  82 S7        29.44F
MINNEAPOLIS    MOCLDY    49  37  63 S7        29.51F
$$

  *****  WEATHER ACROSS SOUTH DAKOTA  *****

CITY           SKY/WX    TMP DP  RH WIND       PRES   REMARKS
SIOUX FALLS    FAIR      46  39  76 S3        29.51F
BROOKINGS      FAIR      45  38  76 S7        29.49F
WATERTOWN      FAIR      38  35  89 S8        29.45F
HURON          FAIR      38  35  89 S6        29.46F
SISSETON         N/A     54  39  57 SW21      29.37F
ABERDEEN       FAIR      31  30  96 S6        29.42F
MITCHELL       FAIR      49  39  68 CALM      29.50F
PIERRE         FAIR      48  37  65 W12       29.48F
MOBRIDGE       CLOUDY    55  36  48 CALM      29.42F
RAPID CITY     FAIR      58  33  39 W13       29.57F
$$

  *****  SOME WEATHER IN NEARBY STATES *****

CITY           SKY/WX    TMP DP  RH WIND       PRES   REMARKS
GLASGOW MT     LGT RAIN  49  44  83 NW14      29.42R
GREAT FALLS MT FAIR      44  37  76 SW22      29.60S
CHEYENNE WY    FAIR      56  31  38 SE9       29.90S
SCOTTSBLUFF NE FAIR      64  34  32 W20G25    29.74F
OMAHA NE       FAIR      45  37  73 SE12      29.67F
DES MOINES IA  MOCLDY    48  36  63 S10       29.71F
DAVENPORT IA   FAIR      36  29  75 S8        29.82F
CHICAGO IL     FAIR      36  26  67 S5        29.83F
EAU CLAIRE WI  FAIR      34  27  75 S8        29.54F
LA CROSSE WI   FAIR      42  30  62 S13       29.63F
$$

  *****  SOME NATIONAL WEATHER *****

CITY           SKY/WX    TMP DP  RH WIND       PRES   REMARKS
LA GUARDIA NY  FAIR      39  22  50 W6        30.04R
RALEIGH NC     FAIR      28  27  96 CALM      30.07S
ATLANTA GA     FAIR      44  38  79 NE6       30.01F
NEW ORLEANS LA FAIR      41  38  89 CALM      30.02F
OKLAHOMA CITY  MOCLDY    45  33  63 S8        29.92F
ALBUQUERQUE NM FAIR      48  30  49 CALM      30.16F
SALT LAKE CITY CLOUDY    52  45  77 SE5       30.00F
LOS ANGELES CA FAIR      66  56  70 CALM      29.92S
BOISE ID       CLOUDY    52  48  86 S5        29.95F
SEATTLE WA     CLOUDY    48  44  86 S15       29.99R
$$

*** WEATHER ACROSS MANITOBA...SASKATCHEWAN AND ONTARIO ***
                ***ONTARIO***

CITY           SKY/WX    TMP DP  RH WIND       PRES   REMARKS
GERALDTON      HAIL      18  16  93 E8        29.31F WCI   7
THUNDER BAY    CLOUDY    32  32 100 CALM      29.30F
SIOUX LOOKOUT  PTCLDY    30  30 100 S7        29.11F WCI  23
TORONTO        MOCLDY    34  23  64 SW7       29.91S
BIG TROUT LK   LGT SNOW   9   5  85 SE12G24   29.21F VSB 1   WCI  -6
PICKLE LAKE    NOT AVBL
DRYDEN         CLOUDY    32  30  93 SW7       29.10F
KENORA         CLOUDY    34  32  93 SW7       29.12R
$$
                *** MANITOBA***

CITY           SKY/WX    TMP DP  RH WIND       PRES   REMARKS
BRANDON        CLOUDY    36  34  93 W16       29.25R
DAUPHIN        CLOUDY    37  32  81 W18G24    29.20R
ISLAND LAKE    NOT AVBL
PILOT MOUND      N/A     41  36  81 NW15        N/A
THE PAS        CLOUDY    18  14  86 S5        29.09F WCI  11
THOMPSON       FLURRIES   3   0  85 E7        29.17F WCI  -9
WINNIPEG       MOCLDY    36  34  93 NW6       29.18S
LYNN LAKE      LGT SNOW   1  -2  85 NE6       29.16R VSB 1   WCI -10
CHURCHILL      PTCLDY   -11 -15  84 W5        29.38F WCI -23
GILLAM         LGT SNOW   1  -2  85 E6        29.27F WCI -10
$$
                ***SASKATCHEWAN***

CITY           SKY/WX    TMP DP  RH WIND       PRES   REMARKS
ESTEVAN        CLOUDY    36  34  93 NW9       29.34F
KINDERSLEY     PTCLDY    32  32 100 W13       29.41S WCI  22
LLOYDMINSTER   CLEAR     34  28  80 W17       29.33R WCI  23
PRINCE ALBERT  CLEAR     30  27  86 W8        29.26R WCI  23
REGINA         MOCLDY    36  34  93 W13       29.34S
YORKTON        CLOUDY    37  32  81 W10       29.26R
N. BATTLEFORD  CLEAR     32  28  86 W10       29.36R WC



USA.gov is the U.S. government's official web portal to all federal, state and local government web resources and services.